Flag for U.S.A. Weather past 2 weeks in Sitka, Alaska, U.S.A.

Now
59 °F

Light rain. Mostly cloudy.


Feels Like: 58 °F
Forecast: 55 / 58 °F
Wind: 8 mph from Southwest

Location: Sitka Airport

Current Time: Jul 28, 2015 at 2:52:15 PM

Latest Report: Jul 28, 2015 at 1:53 PM


Visibility: 8 mi

Pressure: 30.03 "Hg

Humidity: 84%

Dew point: 54 °F

Location of SitkaLocation

Historic Weather in Sitka — Graph

°F

Sitka temperature yesterday

Maximum temperature yesterday: 57 °F (at 1:53 PM)
Minimum temperature yesterday: 55 °F (at 12:53 AM)
Average temperature yesterday: 56 °F

Past Weeks' High & Low Weather Summary

 TemperatureHumidityPressure
High63 °F (Jul 15, 4:53 PM)100% (Jul 18, 7:53 AM)30.31 "Hg (Jul 18, 7:53 AM)
Low50 °F (Jul 25, 4:53 AM)65% (Jul 13, 4:53 PM)29.57 "Hg (Jul 23, 8:53 AM)
Average57 °F86%29.95 "Hg
* Reported Jul 13 12:53 PM — Jul 28 12:53 PM, Sitka, Weather by CustomWeather, © 2015

Note: Actual official high and low records may vary slightly from our data, if they occured in-between our weather recording intervals... More about our weather records

Advertising

Sitka weather history for previous 24 hours

 ConditionsComfort  
Time TempWeatherWind HumidityBarometerVisibility
12:53 PM
Tue, Jul 28
57 °FLight rain. Mostly cloudy.9 mph90%30.02 "Hg8 mi
11:53 AM57 °FLight rain. Fog.8 mph87%30.01 "Hg3 mi
10:53 AM57 °FMostly cloudy.6 mph83%30.00 "Hg10 mi
9:53 AM56 °FMostly cloudy.8 mph87%29.99 "Hg7 mi
9:00 AM56 °FRain. Overcast.6 mph84%29.98 "Hg4 mi
7:53 AM55 °FMostly cloudy.7 mph90%29.96 "Hg8 mi
6:53 AM56 °FMostly cloudy.9 mph87%29.96 "Hg10 mi
5:53 AM56 °FMostly cloudy.10 mph90%29.93 "Hg10 mi
4:53 AM56 °FOvercast.15 mph87%29.92 "Hg10 mi
3:53 AM56 °FLight rain. Fog.17 mph93%29.89 "Hg6 mi
2:53 AM56 °FRain. Fog.9 mph93%29.87 "Hg2 mi
1:53 AM56 °FMostly cloudy.10 mph93%29.85 "Hg10 mi
1:00 AM56 °FLight rain. Fog.12 mph93%29.84 "Hg3 mi
11:53 PM
Mon, Jul 27
56 °FLight rain. Fog.12 mph93%29.83 "Hg5 mi
11:00 PM56 °FLight rain. Fog.13 mph93%29.82 "Hg2 mi
9:53 PM57 °FLight rain. Cloudy.12 mph93%29.82 "Hg8 mi
9:03 PM57 °FLight rain. Fog.6 mph93%29.81 "Hg1 mi
8:53 PM57 °FLight rain. Fog.6 mph93%29.81 "Hg2 mi
8:00 PM57 °FLight rain. Fog.8 mph93%29.81 "Hg4 mi
6:53 PM57 °FLight rain. Fog.6 mph93%29.81 "Hg4 mi
5:53 PM57 °FLight rain. Fog.8 mph93%29.83 "Hg2 mi
5:00 PM57 °FLight rain. Fog.3 mph93%29.83 "Hg4 mi
3:53 PM57 °FLight rain. Fog.9 mph100%29.85 "Hg2 mi
2:53 PM57 °FRain. Fog.13 mph100%29.85 "Hg2 mi
Weather by CustomWeather, © 2015

See weather overviewHow to use our weather pages